User: anonymous   Login
Location: UBC Liquid-Mirror Observatory
(49.2876°N, 122.5728°W)
Time: 10:03:32
(UTC-07:00)
Language:

Cosmos 1743 Rocket - Orbit

View from above orbital plane
View from above orbital plane
View from above satellite
View from above satellite

Ground track
Ground track

The orbit data is extracted from the following two-line orbital elements,

1 16720U 86034B   18110.93783347 +.00000080 +00000-0 +68301-5 0  9993
2 16720 082.5519 314.5753 0020624 162.1216 317.7876 14.83330028703796
Epoch (UTC): 20 April 2018 22:30:28
Eccentricity: 0.0020624
inclination: 82.5519°
perigee height: 604 km
apogee height: 633 km
right ascension of ascending node: 314.5753°
argument of perigee: 162.1216°
revolutions per day: 14.83330028
mean anomaly at epoch: 317.7876°
orbit number at epoch: 70379

The dashed part of the orbit path shows where the satellite is in the earth's shadow,  

DLR